{"data":{"norad_id":55154,"epoch":"2026-09-20T01:45:45.895968Z","epoch_age_seconds":58745,"freshness":"FRESH","line1":"1 55154U 23004Q   26263.07344787 -.00000522  00000+0 -15099-2 0  9994","line2":"2 55154  87.8972   2.2061 0001146  89.6009 270.5250 13.11416499178330","mean_motion":13.11416499,"eccentricity":0.0001146,"inclination_deg":87.8972,"raan_deg":2.2061,"arg_perigee_deg":89.6009,"mean_anomaly_deg":270.525,"bstar":-0.0015099,"rev_number":17833,"period_min":109.80493238403,"perigee_km":1216.8139394151,"apogee_km":1218.5549016847,"semimajor_km":7595.8214205499,"source":"CELESTRAK","updated_at":"2026-09-20T09:00:44.752923Z"}}